Sanford, ME

10:06 AM EDT on May 23, 2017 (GMT -0400)
Sanford Regional

Weather History for KSFM - January, 2014

Change the Weather History Date:

Friday, January 10, 2014

  Actual Average Record
Temperature  
Mean Temperature 14 °F -  
Max Temperature 32 °F 28 °F 51 °F (2016)
Min Temperature -2 °F 11 °F -14 °F (2004)
Degree Days  
Heating Degree Days 51    
Moisture  
Dew Point 12 °F    
Average Humidity 79    
Maximum Humidity 93    
Minimum Humidity 53    
Precipitation  
Precipitation 0.00 in - - ()
Sea Level Pressure  
Sea Level Pressure 30.41 in    
Wind  
Wind Speed 3 mph (SW)    
Max Wind Speed 9 mph    
Max Gust Speed -    
Visibility 8 miles    
Events      
Averages and records for this station are not official NWS values.
T = Trace of Precipitation, MM = Missing Value Source: NWS Daily Summary

Daily Weather History Graph

Daily Weather History Graph

Search for Another Location

Airport or City:

Trip Planner

Search our weather history database for the weather conditions in past years. The results will help you decide how hot, cold, wet, or windy it might be!

Date:

Astronomy

Jan. 10, 2014 Rise Set
Actual Time 7:14 AM EST 4:26 PM EST
Civil Twilight 6:42 AM EST 4:58 PM EST
Nautical Twilight 6:06 AM EST 5:34 PM EST
Astronomical Twilight 5:32 AM EST 6:08 PM EST
Moon 12:31 PM EST (1/10) 2:16 AM EST (1/10)
Length of Visible Light 10h 16m
Length of Day
9h 12m
Waxing Gibbous, 75% of the Moon is Illuminated
Jan 10
Waxing Gibbous
Jan 15
Full
Jan 24
Last Quarter
Jan 30
New
Feb 6
First Quarter

Hourly Weather History & Observations

Time (EST) Temp. Windchill Dew Point Humidity Pressure Visibility Wind Dir Wind Speed Gust Speed Precip Events Conditions
12:15 AM -2.2 °F -10.4 °F -5.8 °F 85% 30.56 in 10.0 mi WSW 3.5 mph - N/A   Clear
12:35 AM -2.2 °F -10.4 °F -11.2 °F 66% 30.55 in 10.0 mi SW 3.5 mph - N/A   Clear
12:55 AM -2.2 °F - -4.0 °F 92% 30.55 in 10.0 mi Calm Calm - N/A   Clear
1:15 AM -2.2 °F - -11.2 °F 66% 30.55 in 10.0 mi Calm Calm - N/A   Clear
1:35 AM -2.2 °F -10.4 °F -7.6 °F 78% 30.55 in 10.0 mi WSW 3.5 mph - N/A   Clear
1:55 AM -2.2 °F -10.4 °F -9.4 °F 71% 30.56 in 10.0 mi WSW 3.5 mph - N/A   Clear
2:15 AM -2.2 °F - -7.6 °F 78% 30.55 in 10.0 mi Calm Calm - N/A   Clear
2:35 AM -2.2 °F - -9.4 °F 71% 30.55 in 10.0 mi Calm Calm - N/A   Clear
2:55 AM -2.2 °F - -7.6 °F 78% 30.54 in 10.0 mi Calm Calm - N/A   Clear
3:15 AM -2.2 °F - -9.4 °F 71% 30.53 in 10.0 mi Calm Calm - N/A   Clear
3:35 AM -2.2 °F -10.4 °F -7.6 °F 78% 30.53 in 10.0 mi WSW 3.5 mph - N/A   Clear
3:55 AM -2.2 °F - -9.4 °F 71% 30.52 in 10.0 mi Calm Calm - N/A   Clear
4:15 AM -2.2 °F - -11.2 °F 66% 30.51 in 9.0 mi Calm Calm - N/A   Clear
4:35 AM -2.2 °F - -5.8 °F 85% 30.51 in 10.0 mi Calm Calm - N/A   Clear
4:55 AM -0.4 °F - -5.8 °F 78% 30.50 in 10.0 mi Calm Calm - N/A   Clear
5:15 AM -0.4 °F -10.4 °F -5.8 °F 78% 30.50 in 10.0 mi SW 4.6 mph - N/A   Clear
5:35 AM -0.4 °F - -9.4 °F 66% 30.49 in 10.0 mi Calm Calm - N/A   Clear
5:55 AM -0.4 °F - -2.2 °F 92% 30.49 in 10.0 mi Calm Calm - N/A   Clear
6:15 AM 1.4 °F - -4.0 °F 78% 30.49 in 10.0 mi Calm Calm - N/A   Clear
6:35 AM 3.2 °F - -0.4 °F 85% 30.48 in 8.0 mi Calm Calm - N/A   Clear
6:55 AM 3.2 °F - -2.2 °F 78% 30.48 in 8.0 mi Calm Calm - N/A   Partly Cloudy
7:15 AM 5.0 °F -2.1 °F 1.4 °F 85% 30.48 in 8.0 mi SSW 3.5 mph - N/A   Partly Cloudy
7:35 AM 14.0 °F 2.9 °F -0.4 °F 53% 30.48 in 6.0 mi SSW 8.1 mph - N/A   Mostly Cloudy
7:55 AM 15.8 °F 5.1 °F 8.6 °F 73% 30.47 in 2.5 mi SW 8.1 mph - N/A   Overcast
8:15 AM 15.8 °F 4.2 °F 8.6 °F 73% 30.47 in 2.0 mi SW 9.2 mph - N/A   Overcast
8:35 AM 15.8 °F 5.1 °F 10.4 °F 79% 30.47 in 2.5 mi SW 8.1 mph - N/A   Overcast
8:55 AM 17.6 °F 9.3 °F 15.8 °F 93% 30.47 in 3.0 mi SSW 5.8 mph - N/A   Overcast
9:15 AM 17.6 °F 9.3 °F 8.6 °F 68% 30.46 in 2.0 mi SSW 5.8 mph - N/A   Overcast
9:35 AM 19.4 °F 11.5 °F 17.6 °F 93% 30.46 in 1.8 mi SSW 5.8 mph - N/A   Overcast
9:55 AM 21.2 °F 13.6 °F 10.4 °F 63% 30.46 in 1.8 mi SSW 5.8 mph - N/A   Overcast
10:15 AM 21.2 °F 14.9 °F 17.6 °F 86% 30.45 in 3.0 mi SSW 4.6 mph - N/A   Overcast
10:35 AM 21.2 °F 13.6 °F 17.6 °F 86% 30.44 in 3.0 mi SSW 5.8 mph - N/A   Overcast
10:55 AM 21.2 °F 13.6 °F 12.2 °F 68% 30.43 in 5.0 mi SSW 5.8 mph - N/A   Overcast
11:15 AM 23.0 °F 13.9 °F 21.2 °F 93% 30.42 in 3.0 mi SSW 8.1 mph - N/A   Overcast
11:35 AM 24.8 °F 17.9 °F 12.2 °F 59% 30.42 in 2.0 mi SSW 5.8 mph - N/A   Overcast
11:55 AM 24.8 °F 17.9 °F 23.0 °F 93% 30.40 in 5.0 mi SW 5.8 mph - N/A   Overcast
12:15 PM 24.8 °F 17.9 °F 14.0 °F 64% 30.38 in 10.0 mi WSW 5.8 mph - N/A   Overcast
12:35 PM 24.8 °F 19.1 °F 23.0 °F 93% 30.37 in 10.0 mi SW 4.6 mph - N/A   Overcast
12:55 PM 26.6 °F 20.0 °F 15.8 °F 64% 30.37 in 10.0 mi SW 5.8 mph - N/A   Overcast
1:15 PM 26.6 °F 20.0 °F 21.2 °F 80% 30.37 in 10.0 mi SSW 5.8 mph - N/A   Overcast
1:35 PM 26.6 °F 20.0 °F 17.6 °F 69% 30.36 in 10.0 mi SSW 5.8 mph - N/A   Overcast
1:55 PM 28.4 °F 22.2 °F 19.4 °F 69% 30.36 in 10.0 mi SW 5.8 mph - N/A   Scattered Clouds
2:15 PM 28.4 °F 21.2 °F 21.2 °F 74% 30.36 in 10.0 mi SSW 6.9 mph - N/A   Scattered Clouds
2:35 PM 28.4 °F 21.2 °F 21.2 °F 74% 30.35 in 5.0 mi SSW 6.9 mph - N/A   Mostly Cloudy
2:55 PM 30.2 °F 23.4 °F 24.8 °F 80% 30.35 in 10.0 mi SSW 6.9 mph - N/A   Mostly Cloudy
3:15 PM 28.4 °F 22.2 °F 21.2 °F 74% 30.35 in 10.0 mi SSW 5.8 mph - N/A   Overcast
3:35 PM 30.2 °F 25.4 °F 23.0 °F 75% 30.35 in 10.0 mi SSW 4.6 mph - N/A   Overcast
3:55 PM 28.4 °F 23.3 °F 24.8 °F 86% 30.34 in 10.0 mi SSW 4.6 mph - N/A   Overcast
4:15 PM 28.4 °F 24.6 °F 21.2 °F 74% 30.34 in 10.0 mi SSW 3.5 mph - N/A   Overcast
4:35 PM 28.4 °F 23.3 °F 24.8 °F 86% 30.34 in 10.0 mi SSW 4.6 mph - N/A   Overcast
4:55 PM 28.4 °F 24.6 °F 24.8 °F 86% 30.34 in 10.0 mi SSW 3.5 mph - N/A   Overcast
5:15 PM 28.4 °F 24.6 °F 23.0 °F 80% 30.33 in 10.0 mi SSW 3.5 mph - N/A   Overcast
5:35 PM 28.4 °F 23.3 °F 24.8 °F 86% 30.33 in 10.0 mi SSW 4.6 mph - N/A   Overcast
5:55 PM 28.4 °F - 24.8 °F 86% 30.32 in 10.0 mi Calm Calm - N/A   Overcast
6:15 PM 28.4 °F - 23.0 °F 80% 30.32 in 10.0 mi Calm Calm - N/A   Overcast
6:35 PM 28.4 °F 24.6 °F 24.8 °F 86% 30.32 in 10.0 mi SSW 3.5 mph - N/A   Overcast
6:55 PM 28.4 °F 22.2 °F 24.8 °F 86% 30.33 in 10.0 mi SSW 5.8 mph - N/A   Overcast
7:15 PM 28.4 °F 22.2 °F 24.8 °F 86% 30.32 in 10.0 mi SW 5.8 mph - N/A   Overcast
7:35 PM 28.4 °F 23.3 °F 24.8 °F 86% 30.31 in 8.0 mi SSW 4.6 mph - N/A   Overcast
7:55 PM 28.4 °F 23.3 °F 24.8 °F 86% 30.31 in 8.0 mi SSW 4.6 mph - N/A   Overcast
8:15 PM 28.4 °F 20.4 °F 24.8 °F 86% 30.31 in 8.0 mi SW 8.1 mph - N/A   Overcast
8:35 PM 30.2 °F 24.3 °F 26.6 °F 86% 30.31 in 8.0 mi SW 5.8 mph - N/A   Overcast
8:55 PM 30.2 °F 24.3 °F 26.6 °F 86% 30.31 in 7.0 mi SSW 5.8 mph - N/A   Overcast
9:15 PM 30.2 °F 26.7 °F 24.8 °F 80% 30.30 in 7.0 mi SW 3.5 mph - N/A   Overcast
9:35 PM 30.2 °F 25.4 °F 26.6 °F 86% 30.30 in 7.0 mi SW 4.6 mph - N/A   Overcast
9:55 PM 30.2 °F 23.4 °F 24.8 °F 80% 30.30 in 7.0 mi West 6.9 mph - N/A   Overcast
10:15 PM 30.2 °F 26.7 °F 24.8 °F 80% 30.29 in 7.0 mi WSW 3.5 mph - N/A   Overcast
10:35 PM 30.2 °F 25.4 °F 26.6 °F 86% 30.29 in 8.0 mi SSW 4.6 mph - N/A   Overcast
10:55 PM 30.2 °F 25.4 °F 26.6 °F 86% 30.28 in 10.0 mi WSW 4.6 mph - N/A   Overcast
11:15 PM 30.2 °F 23.4 °F 26.6 °F 86% 30.27 in 10.0 mi WSW 6.9 mph - N/A   Overcast
11:35 PM 30.2 °F 22.6 °F 26.6 °F 86% 30.26 in 10.0 mi WSW 8.1 mph - N/A   Overcast
11:55 PM 32.0 °F 25.6 °F 28.4 °F 87% 30.26 in 10.0 mi WSW 6.9 mph - N/A   Overcast